Location: Knobs
(40.8333°S, 175.2333°E)
Time: 01:21:16
(UTC+00:00)

H-2A R/B (2) - Pass Details

Date: 12 June 2024
Orbit: 468 x 34264 km, 28.5° (Epoch: 21 July)

Event Time Altitude Azimuth Distance (km) Brightness Sun altitude
Rises 18:47:37 0° 321° (NW) 2,736 4.7 -9.9°
Reaches altitude 10° 18:49:26 10° 339° (NNW) 2,173 4.4 -9.6°
Maximum altitude 18:53:13 24° 36° (NE) 2,249 5.2 -8.9°
Drops below altitude 10° 19:03:39 10° 84° (E) 6,357 8.1 -7.1°
Sets 19:16:59 0° 92° (E) 11,386 9.2 -4.8°
